User: anonymous   Login
Location: Carbonear
(47.7333°N, 53.2500°W)
Time: 16:14:26
(UTC+00:00)
Language:

CUBESAT XI-V - Orbit

View from above orbital plane
View from above orbital plane
View from above satellite
View from above satellite

Ground track
Ground track

The orbit data is extracted from the following two-line orbital elements,

1 28895U 05043F   22333.79461256  .00000867  00000-0  17167-3 0  9993
2 28895  98.1285 102.8783 0016037 344.8021  15.2698 14.64686635911613
Epoch (UTC): 29 November 2022 19:04:14
Eccentricity: 0.0016037
inclination: 98.1285°
perigee height: 667 km
apogee height: 689 km
right ascension of ascending node: 102.8783°
argument of perigee: 344.8021°
revolutions per day: 14.64686635
mean anomaly at epoch: 15.2698°
orbit number at epoch: 91161

The dashed part of the orbit path shows where the satellite is in the earth's shadow,  

DLR